Weather History for Sacramento, CA

Change the Weather History Date:

Thursday, November 7, 2013

  Actual Average Record
Temperature  
Mean Temperature 61 °F -  
Max Temperature 76 °F 68 °F 81 °F (1958)
Min Temperature 45 °F 45 °F 32 °F (1942)
Degree Days  
Heating Degree Days 4    
Cooling Degree Days 0    
Growing Degree Days 10 (Base 50)    
Moisture  
Dew Point 41 °F    
Average Humidity 55    
Maximum Humidity 86    
Minimum Humidity 23    
Precipitation  
Precipitation 0.00 in 0.06 in 1.51 in (2002)
Month to date precipitation 0.00 0.40  
Year to date precipitation 4.50 13.59  
Since 1 July precipitation 0.59 1.69  
Sea Level Pressure  
Sea Level Pressure 30.11 in    
Wind  
Wind Speed 1 mph (South)    
Max Wind Speed 8 mph    
Max Gust Speed 10 mph    
Visibility 10 miles    
Events      
T = Trace of Precipitation, MM = Missing Value Source: NWS Daily Summary

Daily Weather History Graph

Daily Weather History Graph

Search for Another Location

Airport:

Trip Planner

Search our weather history database for the weather conditions in past years. The results will help you decide how hot, cold, wet, or windy it might be!

Date:

Astronomy

Nov. 07, 2013 Rise Set
Actual Time 6:39 AM PST 4:59 PM PST
Civil Twilight 6:11 AM PST 5:27 PM PST
Nautical Twilight 5:39 AM PST 5:58 PM PST
Astronomical Twilight 5:08 AM PST 6:30 PM PST
Moon 10:51 AM PST (11/7) 9:17 PM PST (11/7)
Length of Visible Light 11h 15m
Length of Day
10h 20m
Waxing Crescent, 24% of the Moon is Illuminated
Nov 7
Waxing Crescent
Nov 9
First Quarter
Nov 17
Full
Nov 25
Last Quarter
Dec 2
New

Hourly Weather History & Observations

Time (PST) Temp. Dew Point Humidity Pressure Visibility Wind Dir Wind Speed Gust Speed Precip Events Conditions
12:53 AM 52.0 °F 43.0 °F 71% 30.17 in 10.0 mi Calm Calm - N/A   Clear
1:53 AM 51.1 °F 42.1 °F 71% 30.17 in 10.0 mi Calm Calm - N/A   Clear
2:53 AM 50.0 °F 42.1 °F 74% 30.16 in 10.0 mi Calm Calm - N/A   Clear
3:53 AM 48.9 °F 41.0 °F 74% 30.15 in 10.0 mi Calm Calm - N/A   Clear
4:53 AM 48.9 °F 42.1 °F 77% 30.15 in 10.0 mi WNW 3.5 mph - N/A   Clear
5:53 AM 46.0 °F 42.1 °F 86% 30.15 in 10.0 mi Calm Calm - N/A   Clear
6:53 AM 46.0 °F 41.0 °F 83% 30.16 in 10.0 mi Calm Calm - N/A   Clear
7:53 AM 53.1 °F 43.0 °F 69% 30.17 in 10.0 mi Calm Calm - N/A   Clear
8:53 AM 59.0 °F 39.9 °F 49% 30.18 in 10.0 mi Calm Calm - N/A   Clear
9:53 AM 62.1 °F 39.9 °F 44% 30.18 in 10.0 mi Calm Calm - N/A   Clear
10:53 AM 64.0 °F 39.0 °F 40% 30.16 in 9.0 mi Calm Calm - N/A   Clear
11:53 AM 68.0 °F 39.0 °F 35% 30.13 in 9.0 mi Calm Calm - N/A   Clear
12:53 PM 73.0 °F 36.0 °F 26% 30.10 in 10.0 mi SE 6.9 mph - N/A   Clear
1:53 PM 75.0 °F 36.0 °F 24% 30.09 in 10.0 mi WSW 4.6 mph - N/A   Clear
2:53 PM 75.0 °F 37.0 °F 25% 30.06 in 7.0 mi South 5.8 mph - N/A   Clear
3:53 PM 73.9 °F 37.0 °F 26% 30.05 in 10.0 mi South 5.8 mph - N/A   Clear
4:53 PM 68.0 °F 41.0 °F 37% 30.05 in 10.0 mi Calm Calm - N/A   Clear
5:53 PM 61.0 °F 43.0 °F 52% 30.06 in 10.0 mi Calm Calm - N/A   Clear
6:53 PM 62.1 °F 41.0 °F 46% 30.06 in 10.0 mi South 3.5 mph - N/A   Clear
7:53 PM 59.0 °F 41.0 °F 51% 30.06 in 10.0 mi Calm Calm - N/A   Clear
8:53 PM 59.0 °F 41.0 °F 51% 30.06 in 10.0 mi Calm Calm - N/A   Clear
9:53 PM 55.0 °F 41.0 °F 59% 30.07 in 10.0 mi SE 4.6 mph - N/A   Clear
10:53 PM 53.1 °F 42.1 °F 66% 30.07 in 10.0 mi Calm Calm - N/A   Clear
11:53 PM 50.0 °F 42.1 °F 74% 30.06 in 10.0 mi Calm Calm - N/A   Clear